DW4212 La Cabrera ES current weather conditions

sailwx.info

Wind from 005

Air temperature 20.0° C
Dewpoint 6.7° C

Last reported at 2016-Aug-30 23:49 UTC.
Time now 2016-Aug-31 00:33 UTC

Location: N 40°53' W 003°35'.
View on Google Maps.

See reports from other nearby stations

  
Tides and Currents Weather Stations Pressure Air Temp Water Temp Dewpoint Dewpoint Depression Visibility Wind Speed Wind Dir Waves Ship Positions
date/time (UTC)wind fromknots sea level pressurealtimeterstation pressurevisibilityair tempwater tempwave heightnotes
2016-Aug-30 23:49 005 20.0
2016-Aug-30 23:39 005 3 gusting 6 20.6
2016-Aug-30 23:29 360 1 gusting 6 20.6
2016-Aug-30 23:09 355 21.1
2016-Aug-30 22:59 355 21.1
2016-Aug-30 22:49 355 0 gusting 2 21.7
2016-Aug-30 22:39 355 0 gusting 4 21.7
2016-Aug-30 22:29 350 1 gusting 4 21.7
2016-Aug-30 22:19 355 0 gusting 4 22.2
2016-Aug-30 22:09 350 1 gusting 4 22.2
2016-Aug-30 21:59 360 0 gusting 3 22.8
2016-Aug-30 21:49 360 0 gusting 4 22.8
2016-Aug-30 21:39 336 1 gusting 6 23.3
2016-Aug-30 21:29 355 3 gusting 5 23.3
2016-Aug-30 21:19 342 2 gusting 6 23.3
2016-Aug-30 21:09 343 2 gusting 6 22.8
2016-Aug-30 20:59 005 0 gusting 4 23.3
2016-Aug-30 20:49 355 0 gusting 3 23.3
2016-Aug-30 20:39 351 0 gusting 4 23.9
2016-Aug-30 20:29 355 0 gusting 5 23.9
2016-Aug-30 20:19 349 1 gusting 4 24.4
2016-Aug-30 20:09 156 24.4
2016-Aug-30 19:59 166 25.0
2016-Aug-30 19:39 207 25.6
2016-Aug-30 19:29 207 25.6
2016-Aug-30 19:19 200 26.1
2016-Aug-30 19:09 200 26.7
2016-Aug-30 18:59 192 26.7
2016-Aug-30 18:49 192 27.2
2016-Aug-30 18:39 192 27.2
2016-Aug-30 18:29 192 27.2
2016-Aug-30 18:19 192 27.2
2016-Aug-30 18:09 192 27.2
2016-Aug-30 17:59 192 0 gusting 4 27.2
2016-Aug-30 17:49 192 27.8
2016-Aug-30 17:39 184 27.8
2016-Aug-30 17:29 197 28.3
2016-Aug-30 17:19 193 1 gusting 6 28.3
2016-Aug-30 17:09 196 0 gusting 4 28.9
2016-Aug-30 16:59 189 0 gusting 4 28.9
2016-Aug-30 16:49 184 28.9
2016-Aug-30 16:39 182 28.9
2016-Aug-30 16:29 188 28.9
2016-Aug-30 16:19 178 28.3
2016-Aug-30 16:09 117 28.3
2016-Aug-30 15:59 170 28.3
2016-Aug-30 15:49 182 29.4
2016-Aug-30 15:39 182 0 gusting 4 29.4
2016-Aug-30 15:29 297 0 gusting 5 28.9
2016-Aug-30 15:19 191 28.9
2016-Aug-30 15:09 223 1 gusting 5 28.9
2016-Aug-30 14:59 298 0 gusting 3 28.9
2016-Aug-30 14:49 194 0 gusting 4 28.9
2016-Aug-30 14:39 181 28.9
2016-Aug-30 14:29 193 0 gusting 5 29.4
2016-Aug-30 14:19 296 0 gusting 6 29.4
2016-Aug-30 14:09 210 29.4
2016-Aug-30 13:59 222 0 gusting 6 29.4
2016-Aug-30 13:49 177 28.3
2016-Aug-30 13:39 198 27.8
2016-Aug-30 13:29 186 0 gusting 4 27.2
2016-Aug-30 13:19 172 27.2
2016-Aug-30 13:09 164 0 gusting 4 27.2
2016-Aug-30 12:59 192 27.8
2016-Aug-30 12:49 197 27.2
2016-Aug-30 12:39 174 0 gusting 4 26.7
2016-Aug-30 12:29 194 0 gusting 6 26.7
2016-Aug-30 12:19 175 3 gusting 6 26.7
2016-Aug-30 12:09 198 3 gusting 9 26.7
2016-Aug-30 11:59 168 26.7
2016-Aug-30 11:49 171 26.1
2016-Aug-30 11:39 189 26.1
2016-Aug-30 11:29 189 0 gusting 6 26.1
2016-Aug-30 11:19 193 1 gusting 6 25.6
2016-Aug-30 11:09 190 0 gusting 6 25.0
2016-Aug-30 10:59 182 0 gusting 6 25.0
2016-Aug-30 10:49 178 0 gusting 4 25.0
2016-Aug-30 10:39 181 24.4
2016-Aug-30 10:29 176 24.4
2016-Aug-30 10:19 179 24.4
2016-Aug-30 10:09 176 0 gusting 5 23.9
2016-Aug-30 09:59 165 23.3
2016-Aug-30 09:49 193 23.3
2016-Aug-30 09:39 182 23.3
2016-Aug-30 09:29 186 22.8
2016-Aug-30 09:19 179 0 gusting 3 22.2
2016-Aug-30 09:09 072 21.7
2016-Aug-30 08:59 070 21.1
2016-Aug-30 08:49 070 21.1
2016-Aug-30 08:39 069 20.6
2016-Aug-30 08:29 070 20.6
2016-Aug-30 08:19 070 19.4
2016-Aug-30 08:09 070 18.9
2016-Aug-30 07:59 128 18.9
2016-Aug-30 07:49 023 0 gusting 3 18.9
2016-Aug-30 07:39 018 0 gusting 3 18.9
2016-Aug-30 07:29 016 18.9
2016-Aug-30 07:09 015 17.8
2016-Aug-30 06:59 015 17.2
2016-Aug-30 06:49 015 16.7
2016-Aug-30 06:39 015 15.6
2016-Aug-30 06:29 015 15.0
2016-Aug-30 06:19 015 14.4
2016-Aug-30 06:09 015 14.4
2016-Aug-30 05:59 015 14.4
2016-Aug-30 05:49 015 14.4
2016-Aug-30 05:39 015 14.4
2016-Aug-30 05:29 015 14.4
2016-Aug-30 05:19 015 14.4
2016-Aug-30 05:09 015 284 gusting 284 15.0
2016-Aug-30 04:59 015 15.0
2016-Aug-30 04:49 015 15.0
2016-Aug-30 04:39 015 15.6
2016-Aug-30 04:19 015 15.6
2016-Aug-30 04:09 015 16.1
2016-Aug-30 03:59 015 16.1
2016-Aug-30 03:49 015 16.1
2016-Aug-30 03:39 015 16.1
2016-Aug-30 03:29 015 16.1
2016-Aug-30 03:19 015 16.7
2016-Aug-30 03:09 015 16.7
2016-Aug-30 02:59 015 16.7
2016-Aug-30 02:49 015 16.7
2016-Aug-30 02:39 015 16.7
2016-Aug-30 02:29 015 16.7
2016-Aug-30 02:19 015 16.7
2016-Aug-30 02:09 015 16.7
2016-Aug-30 01:59 015 16.7
2016-Aug-30 01:49 014 16.7
2016-Aug-30 01:39 350 16.7
2016-Aug-30 01:29 350 16.7
2016-Aug-30 01:19 350 17.2
2016-Aug-30 01:09 350 17.2
2016-Aug-30 00:59 350 17.2
2016-Aug-30 00:49 350 17.8
2016-Aug-30 00:39 348 17.8
2016-Aug-30 00:29 348 17.8
2016-Aug-30 00:19 348 17.8
2016-Aug-30 00:09 348 18.3
2016-Aug-29 23:59 348 0 gusting 3 18.9
2016-Aug-29 23:49 346 18.9
2016-Aug-29 23:40 345 0 gusting 5 18.9
2016-Aug-29 23:29 340 0 gusting 5 19.4
2016-Aug-29 23:19 338 0 gusting 4 19.4
2016-Aug-29 23:09 337 19.4
2016-Aug-29 22:59 336 0 gusting 5 19.4
2016-Aug-29 22:49 332 1 gusting 5 19.4
2016-Aug-29 22:39 333 19.4
2016-Aug-29 22:29 329 19.4
2016-Aug-29 22:09 344 0 gusting 3 19.4
2016-Aug-29 21:59 348 20.0
2016-Aug-29 21:49 339 2 gusting 7 20.0
2016-Aug-29 21:39 322 1 gusting 8 20.0
2016-Aug-29 21:29 360 2 gusting 6 20.0
2016-Aug-29 21:19 338 3 gusting 6 20.0
2016-Aug-29 21:09 336 2 gusting 5 19.4
2016-Aug-29 20:59 355 0 gusting 5 20.0
2016-Aug-29 20:49 350 1 gusting 5 20.0
2016-Aug-29 20:39 350 1 gusting 6 20.6
2016-Aug-29 20:29 340 1 gusting 8 20.6
2016-Aug-29 20:19 306 5 gusting 9 20.6
2016-Aug-29 20:09 005 3 gusting 8 21.1
2016-Aug-29 19:59 340 4 gusting 8 21.1
2016-Aug-29 19:49 355 2 gusting 6 21.7
2016-Aug-29 19:39 005 2 gusting 7 21.7
2016-Aug-29 19:09 005 0 gusting 7 23.3
2016-Aug-29 18:59 346 6 gusting 13 23.3
2016-Aug-29 18:49 346 6 gusting 10 23.9
2016-Aug-29 18:39 302 2 gusting 12 24.4
2016-Aug-29 18:29 005 0 gusting 8 25.0
2016-Aug-29 18:19 355 2 gusting 10 25.6
2016-Aug-29 18:09 015 3 gusting 7 26.1
2016-Aug-29 17:59 336 5 gusting 10 26.1
2016-Aug-29 17:49 334 2 gusting 8 26.7
2016-Aug-29 17:39 342 1 gusting 10 26.7
2016-Aug-29 17:29 313 5 gusting 12 27.2
2016-Aug-29 17:19 355 5 gusting 13 27.8
2016-Aug-29 17:09 341 3 gusting 12 27.8
2016-Aug-29 16:59 360 4 gusting 11 28.3
2016-Aug-29 16:49 343 6 gusting 12 28.9
2016-Aug-29 16:39 031 2 gusting 10 28.9
2016-Aug-29 16:29 011 0 gusting 7 29.4
2016-Aug-29 16:19 061 2 gusting 8 29.4
2016-Aug-29 16:09 355 4 gusting 10 29.4
2016-Aug-29 15:59 313 2 gusting 7 29.4
2016-Aug-29 15:49 342 2 gusting 6 30.0
2016-Aug-29 15:39 009 0 gusting 8 30.0
2016-Aug-29 15:29 350 3 gusting 7 30.0
2016-Aug-29 15:19 346 2 gusting 7 30.6
2016-Aug-29 15:09 321 2 gusting 8 30.0
2016-Aug-29 14:59 058 1 gusting 8 30.0
2016-Aug-29 14:49 355 2 gusting 6 30.6
2016-Aug-29 14:39 307 1 gusting 7 30.0
2016-Aug-29 14:29 319 0 gusting 4 30.6
2016-Aug-29 14:19 315 1 gusting 6 30.6
2016-Aug-29 14:09 010 30.6
2016-Aug-29 13:59 049 31.7
2016-Aug-29 13:49 269 32.8
2016-Aug-29 13:39 252 0 gusting 4 32.8
2016-Aug-29 13:29 229 31.7
2016-Aug-29 13:19 187 1 gusting 6 31.1
2016-Aug-29 13:09 199 0 gusting 3 31.1
2016-Aug-29 12:59 182 0 gusting 12 30.6
2016-Aug-29 12:49 175 2 gusting 6 31.1
2016-Aug-29 12:39 247 31.1
2016-Aug-29 12:29 169 30.6
2016-Aug-29 12:19 180 1 gusting 6 31.1
2016-Aug-29 12:09 199 1 gusting 4 30.6
2016-Aug-29 11:59 192 0 gusting 6 30.0
2016-Aug-29 11:49 177 1 gusting 6 29.4
2016-Aug-29 11:39 177 2 gusting 8 30.0
2016-Aug-29 11:29 255 1 gusting 6 30.0
2016-Aug-29 11:19 296 0 gusting 5 30.0
2016-Aug-29 11:09 190 0 gusting 6 29.4
2016-Aug-29 10:59 208 28.9
2016-Aug-29 10:49 176 3 gusting 8 28.9
2016-Aug-29 10:39 183 1 gusting 6 28.9
2016-Aug-29 10:29 196 0 gusting 5 28.3
2016-Aug-29 10:19 169 28.3
2016-Aug-29 10:09 182 0 gusting 4 28.3
2016-Aug-29 09:59 193 28.3
2016-Aug-29 09:19 213 27.2
2016-Aug-29 09:09 154 27.2
2016-Aug-29 08:59 130 26.7
2016-Aug-29 08:49 034 26.1
2016-Aug-29 08:39 034 25.6
2016-Aug-29 08:29 033 0 gusting 3 25.0
2016-Aug-29 08:19 015 24.4
2016-Aug-29 08:09 015 24.4
2016-Aug-29 07:59 015 23.9
2016-Aug-29 07:49 015 23.9
2016-Aug-29 07:39 017 23.3
2016-Aug-29 07:29 355 22.8
2016-Aug-29 07:19 355 0 gusting 3 22.2
2016-Aug-29 07:09 355 0 gusting 2 21.7
2016-Aug-29 06:59 355 0 gusting 3 21.1
2016-Aug-29 06:49 355 0 gusting 4 21.1
2016-Aug-29 06:39 355 1 gusting 6 21.1
2016-Aug-29 06:29 344 20.6
2016-Aug-29 06:19 344 20.0
2016-Aug-29 06:09 344 0 gusting 2 19.4
2016-Aug-29 05:59 344 18.9
2016-Aug-29 05:49 344 0 gusting 2 18.3
2016-Aug-29 05:39 344 18.3
2016-Aug-29 05:29 344 18.3
2016-Aug-29 05:19 344 18.3
2016-Aug-29 05:09 344 18.9
2016-Aug-29 04:59 344 18.9
2016-Aug-29 04:49 344 19.4
2016-Aug-29 04:39 344 19.4
2016-Aug-29 04:29 344 20.0
2016-Aug-29 04:19 344 20.0
2016-Aug-29 04:09 344 20.0
2016-Aug-29 03:59 344 20.0
2016-Aug-29 03:49 344 20.6
2016-Aug-29 03:39 344 20.6
2016-Aug-29 03:29 344 21.1
2016-Aug-29 03:19 344 21.7
2016-Aug-29 03:09 344 21.7
2016-Aug-29 02:59 344 22.2
2016-Aug-29 02:49 344 22.8
2016-Aug-29 02:39 344 22.8
2016-Aug-29 02:29 350 23.3
2016-Aug-29 02:19 350 0 gusting 5 23.3
2016-Aug-29 02:09 355 2 gusting 6 23.3
2016-Aug-29 01:59 005 2 gusting 7 23.3
2016-Aug-29 01:49 011 3 gusting 11 23.3
2016-Aug-29 01:39 331 2 gusting 7 23.9
2016-Aug-29 01:29 348 2 gusting 7 23.9
2016-Aug-29 01:19 327 5 gusting 10 23.9
2016-Aug-29 01:09 313 4 gusting 11 23.9
2016-Aug-29 00:59 327 3 gusting 8 23.9
2016-Aug-29 00:49 328 4 gusting 8 23.9
2016-Aug-29 00:39 323 5 gusting 10 23.9
2016-Aug-29 00:29 306 3 gusting 7 23.9
2016-Aug-29 00:19 337 2 gusting 8 23.9
2016-Aug-29 00:09 345 3 gusting 8 23.9